| time (UTC) | temp C | wind direction | speed KPH | gust KPH | rain 1hr cm | rain 24hr cm | rain mn cm | humidity % | barometer mb |
| 20260503213328 | 13 | 314 | 0.0 | 0.0 | 0.00 | 0.00 | 0.00 | 41 | 1012.6 |
| 20260503212833 | 13 | 142 | 0.0 | 0.0 | 0.00 | 0.00 | 0.00 | 39 | 1012.5 |
| 20260503212316 | 13 | 240 | 0.0 | 0.0 | 0.00 | 0.00 | 0.00 | 39 | 1012.5 |
| 20260503211820 | 13 | 279 | 0.0 | 0.0 | 0.00 | 0.00 | 0.00 | 38 | 1012.6 |
| 20260503211322 | 13 | 65 | 0.0 | 0.0 | 0.00 | 0.00 | 0.00 | 38 | 1012.6 |
| 20260503210828 | 14 | 225 | 0.0 | 0.0 | 0.00 | 0.00 | 0.00 | 37 | 1012.5 |
| 20260503210334 | 14 | 300 | 0.0 | 0.0 | 0.00 | 0.00 | 0.00 | 36 | 1012.4 |
| 20260503205837 | 15 | 332 | 0.0 | 0.0 | 0.00 | 0.00 | 0.00 | 37 | 1012.4 |
| 20260503205313 | 14 | 302 | 0.0 | 0.0 | 0.00 | 0.00 | 0.00 | 36 | 1012.4 |
| 20260503204819 | 14 | 301 | 0.0 | 0.0 | 0.00 | 0.00 | 0.00 | 37 | 1012.8 |
| 20260503204324 | 14 | 240 | 0.0 | 0.0 | 0.00 | 0.00 | 0.00 | 37 | 1012.7 |
| 20260503203813 | 15 | 37 | 0.0 | 0.0 | 0.00 | 0.00 | 0.00 | 37 | 1012.7 |
| 20260503203318 | 15 | 49 | 0.0 | 0.0 | 0.00 | 0.00 | 0.00 | 35 | 1012.7 |
| 20260503202823 | 15 | 225 | 0.0 | 0.0 | 0.00 | 0.00 | 0.00 | 36 | 1012.5 |
| 20260503202348 | 15 | 40 | 0.0 | 16.1 | 0.00 | 0.00 | 0.00 | 38 | 1012.7 |
| 20260503201831 | 15 | 240 | 1.6 | 14.5 | 0.00 | 0.00 | 0.00 | 37 | 1013.0 |
| 20260503201338 | 15 | 339 | 1.6 | 8.0 | 0.00 | 0.00 | 0.00 | 35 | 1013.0 |
| 20260503200822 | 15 | 320 | 0.0 | 0.0 | 0.00 | 0.00 | 0.00 | 36 | 1013.0 |
| 20260503200325 | 15 | 272 | 0.0 | 0.0 | 0.00 | 0.00 | 0.00 | 37 | 1013.1 |
| 20260503195828 | 15 | 330 | 0.0 | 0.0 | 0.00 | 0.00 | 0.00 | 36 | 1013.0 |
| 20260503195353 | 15 | 28 | 0.0 | 0.0 | 0.00 | 0.00 | 0.00 | 36 | 1013.1 |
| 20260503194815 | 15 | 314 | 0.0 | 0.0 | 0.00 | 0.00 | 0.00 | 37 | 1013.1 |
| 20260503194342 | 14 | 297 | 0.0 | 0.0 | 0.00 | 0.00 | 0.00 | 37 | 1013.4 |
| 20260503193847 | 14 | 255 | 0.0 | 0.0 | 0.00 | 0.00 | 0.00 | 37 | 1013.3 |
| 20260503193328 | 14 | 307 | 0.0 | 0.0 | 0.00 | 0.00 | 0.00 | 38 | 1013.4 |
| 20260503192830 | 13 | 156 | 0.0 | 0.0 | 0.00 | 0.00 | 0.00 | 39 | 1013.5 |
| 20260503192312 | 13 | 313 | 0.0 | 0.0 | 0.00 | 0.00 | 0.00 | 39 | 1013.5 |
| 20260503191824 | 13 | 41 | 0.0 | 0.0 | 0.00 | 0.00 | 0.00 | 37 | 1013.7 |
| 20260503191327 | 13 | 303 | 0.0 | 0.0 | 0.00 | 0.00 | 0.00 | 39 | 1013.5 |
| 20260503190829 | 13 | 262 | 0.0 | 0.0 | 0.00 | 0.00 | 0.00 | 38 | 1013.6 |
| 20260503190314 | 14 | 345 | 0.0 | 0.0 | 0.00 | 0.00 | 0.00 | 37 | 1013.8 |
| 20260503185819 | 14 | 19 | 0.0 | 0.0 | 0.00 | 0.00 | 0.00 | 37 | 1013.7 |
| 20260503185323 | 14 | 360 | 0.0 | 0.0 | 0.00 | 0.00 | 0.00 | 38 | 1013.8 |
| 20260503184825 | 14 | 297 | 0.0 | 0.0 | 0.00 | 0.00 | 0.00 | 38 | 1013.9 |
| 20260503184327 | 14 | 254 | 0.0 | 0.0 | 0.00 | 0.00 | 0.00 | 38 | 1013.9 |
| 20260503183832 | 13 | 262 | 0.0 | 0.0 | 0.00 | 0.00 | 0.00 | 42 | 1013.8 |
| 20260503183316 | 13 | 117 | 0.0 | 0.0 | 0.00 | 0.00 | 0.00 | 40 | 1014.0 |
| 20260503182839 | 13 | 295 | 0.0 | 0.0 | 0.00 | 0.00 | 0.00 | 39 | 1014.1 |
| 20260503182322 | 13 | 336 | 0.0 | 0.0 | 0.00 | 0.00 | 0.00 | 40 | 1014.0 |
| 20260503181828 | 13 | 252 | 0.0 | 0.0 | 0.00 | 0.00 | 0.00 | 39 | 1014.1 |
| 20260503181316 | 13 | 345 | 0.0 | 0.0 | 0.00 | 0.00 | 0.00 | 38 | 1014.2 |
| 20260503180823 | 13 | 214 | 0.0 | 0.0 | 0.00 | 0.00 | 0.00 | 40 | 1014.1 |
| 20260503180329 | 12 | 251 | 0.0 | 0.0 | 0.00 | 0.00 | 0.00 | 41 | 1014.2 |
| 20260503175813 | 12 | 305 | 0.0 | 0.0 | 0.00 | 0.00 | 0.00 | 40 | 1014.2 |
| 20260503175322 | 12 | 249 | 0.0 | 0.0 | 0.00 | 0.00 | 0.00 | 39 | 1014.3 |
| 20260503174824 | 13 | 354 | 0.0 | 0.0 | 0.00 | 0.00 | 0.00 | 41 | 1014.4 |
| 20260503174330 | 13 | 309 | 0.0 | 0.0 | 0.00 | 0.00 | 0.00 | 41 | 1014.4 |
| 20260503173835 | 13 | 295 | 0.0 | 0.0 | 0.00 | 0.00 | 0.00 | 39 | 1014.3 |
| 20260503173318 | 13 | 260 | 0.0 | 0.0 | 0.00 | 0.00 | 0.00 | 40 | 1014.3 |
| 20260503172844 | 13 | 278 | 0.0 | 0.0 | 0.00 | 0.00 | 0.00 | 39 | 1014.3 |
| 20260503172327 | 13 | 209 | 0.0 | 16.1 | 0.00 | 0.00 | 0.00 | 40 | 1014.3 |
| 20260503171853 | 13 | 105 | 3.2 | 16.1 | 0.00 | 0.00 | 0.00 | 40 | 1014.3 |
| 20260503171317 | 12 | 291 | 0.0 | 0.0 | 0.00 | 0.00 | 0.00 | 42 | 1014.3 |
| 20260503170823 | 12 | 290 | 0.0 | 9.7 | 0.00 | 0.00 | 0.00 | 42 | 1014.4 |
| 20260503170327 | 12 | 311 | 1.6 | 12.9 | 0.00 | 0.00 | 0.00 | 42 | 1014.4 |
| 20260503150838 | 9 | 45 | 0.0 | 0.0 | 0.00 | 0.00 | 0.00 | 50 | 1015.6 |
| 20260503150324 | 9 | 34 | 0.0 | 12.9 | 0.00 | 0.00 | 0.00 | 50 | 1015.5 |
| 20260503131316 | 7 | 274 | 0.0 | 0.0 | 0.00 | 0.00 | 0.00 | 57 | 1016.0 |
| 20260503130822 | 7 | 341 | 0.0 | 0.0 | 0.00 | 0.00 | 0.00 | 57 | 1016.1 |
| 20260503130329 | 7 | 250 | 0.0 | 0.0 | 0.00 | 0.00 | 0.00 | 59 | 1016.0 |
| 20260503110349 | 1 | 284 | 0.0 | 0.0 | 0.00 | 0.00 | 0.00 | 77 | 1015.5 |
| 20260503090323 | 2 | 31 | 0.0 | 0.0 | 0.00 | 0.00 | 0.00 | 72 | 1014.6 |
| 20260503081326 | 2 | 316 | 0.0 | 0.0 | 0.00 | 0.00 | 0.00 | 71 | 1014.4 |
| 20260503080852 | 2 | 5 | 0.0 | 0.0 | 0.00 | 0.00 | 0.00 | 71 | 1014.4 |
| 20260503080318 | 2 | 49 | 0.0 | 0.0 | 0.00 | 0.00 | 0.00 | 71 | 1014.4 |
| 20260503072853 | 2 | 305 | 0.0 | 0.0 | 0.00 | 0.00 | 0.00 | 71 | 1014.2 |
| 20260503072318 | 2 | 47 | 0.0 | 0.0 | 0.00 | 0.00 | 0.00 | 70 | 1014.3 |
| 20260503071823 | 2 | 47 | 0.0 | 0.0 | 0.00 | 0.00 | 0.00 | 70 | 1014.2 |
| 20260503071326 | 2 | 47 | 0.0 | 0.0 | 0.00 | 0.00 | 0.00 | 71 | 1014.1 |
| 20260503070813 | 2 | 115 | 0.0 | 0.0 | 0.00 | 0.00 | 0.00 | 71 | 1014.2 |
| 20260503070340 | 2 | 27 | 0.0 | 0.0 | 0.00 | 0.00 | 0.00 | 70 | 1014.1 |
| 20260503060324 | 2 | 316 | 0.0 | 0.0 | 0.00 | 0.00 | 0.00 | 70 | 1014.2 |
| 20260503054816 | 2 | 2 | 0.0 | 0.0 | 0.00 | 0.03 | 0.00 | 70 | 1014.3 |
| 20260503054322 | 2 | 220 | 0.0 | 0.0 | 0.00 | 0.03 | 0.00 | 69 | 1014.3 |
| 20260503053848 | 2 | 220 | 0.0 | 0.0 | 0.00 | 0.03 | 0.00 | 68 | 1014.2 |
| 20260503053347 | 2 | 220 | 0.0 | 0.0 | 0.00 | 0.03 | 0.00 | 68 | 1014.4 |
| 20260503052829 | 3 | 220 | 0.0 | 0.0 | 0.00 | 0.03 | 0.00 | 68 | 1014.3 |
| 20260503052315 | 3 | 220 | 0.0 | 0.0 | 0.00 | 0.03 | 0.00 | 69 | 1014.3 |
| 20260503051822 | 3 | 220 | 0.0 | 0.0 | 0.00 | 0.03 | 0.00 | 69 | 1014.4 |
| 20260503051325 | 3 | 219 | 0.0 | 0.0 | 0.00 | 0.03 | 0.00 | 69 | 1014.4 |
| 20260503050849 | 3 | 219 | 0.0 | 0.0 | 0.00 | 0.03 | 0.00 | 70 | 1014.4 |
| 20260503050312 | 2 | 288 | 0.0 | 0.0 | 0.00 | 0.03 | 0.00 | 70 | 1014.5 |
| 20260503045816 | 2 | 3 | 0.0 | 0.0 | 0.00 | 0.15 | 0.00 | 70 | 1014.4 |
| 20260503045321 | 3 | 3 | 0.0 | 0.0 | 0.00 | 0.15 | 0.00 | 70 | 1014.5 |
| 20260503044827 | 3 | 3 | 0.0 | 0.0 | 0.00 | 0.15 | 0.00 | 69 | 1014.4 |
| 20260503044330 | 3 | 3 | 0.0 | 0.0 | 0.00 | 0.15 | 0.00 | 69 | 1014.5 |
| 20260503043815 | 3 | 3 | 0.0 | 0.0 | 0.00 | 0.15 | 0.00 | 69 | 1014.4 |
| 20260503043324 | 3 | 3 | 0.0 | 0.0 | 0.00 | 0.15 | 0.00 | 69 | 1014.4 |
| 20260503042831 | 3 | 3 | 0.0 | 0.0 | 0.00 | 0.15 | 0.00 | 68 | 1014.4 |
| 20260503042315 | 3 | 3 | 0.0 | 0.0 | 0.00 | 0.15 | 0.00 | 67 | 1014.5 |
| 20260503041822 | 3 | 3 | 0.0 | 0.0 | 0.00 | 0.15 | 0.00 | 67 | 1014.6 |
| 20260503041328 | 3 | 3 | 0.0 | 0.0 | 0.00 | 0.15 | 0.00 | 66 | 1014.5 |
| 20260503040831 | 3 | 3 | 0.0 | 0.0 | 0.00 | 0.15 | 0.00 | 66 | 1014.5 |
| 20260503040336 | 4 | 3 | 0.0 | 0.0 | 0.00 | 0.15 | 0.00 | 65 | 1014.5 |
| 20260503035820 | 4 | 3 | 0.0 | 0.0 | 0.00 | 0.20 | 0.15 | 65 | 1014.5 |
| 20260503035326 | 4 | 3 | 0.0 | 0.0 | 0.00 | 0.20 | 0.15 | 65 | 1014.5 |
| 20260503034829 | 4 | 3 | 0.0 | 0.0 | 0.00 | 0.20 | 0.15 | 65 | 1014.6 |
| 20260503034332 | 4 | 292 | 0.0 | 0.0 | 0.00 | 0.20 | 0.15 | 65 | 1014.7 |
| 20260503033822 | 4 | 292 | 0.0 | 0.0 | 0.00 | 0.20 | 0.15 | 65 | 1014.6 |
| 20260503033327 | 4 | 292 | 0.0 | 0.0 | 0.00 | 0.20 | 0.15 | 65 | 1014.7 |
| 20260503032830 | 4 | 27 | 0.0 | 0.0 | 0.00 | 0.20 | 0.15 | 65 | 1014.7 |
| 20260503032354 | 4 | 320 | 0.0 | 0.0 | 0.00 | 0.20 | 0.15 | 66 | 1014.8 |
| 20260503031815 | 5 | 321 | 0.0 | 0.0 | 0.00 | 0.20 | 0.15 | 67 | 1014.8 |
| 20260503031318 | 5 | 320 | 0.0 | 0.0 | 0.00 | 0.20 | 0.15 | 67 | 1014.8 |
| 20260503030824 | 5 | 13 | 0.0 | 0.0 | 0.00 | 0.20 | 0.15 | 67 | 1015.0 |
| 20260503030327 | 5 | 226 | 0.0 | 0.0 | 0.00 | 0.20 | 0.15 | 67 | 1014.9 |
| 20260503025831 | 5 | 287 | 0.0 | 0.0 | 0.00 | 0.20 | 0.15 | 68 | 1014.7 |
| 20260503025316 | 5 | 288 | 0.0 | 0.0 | 0.00 | 0.20 | 0.15 | 68 | 1014.7 |
| 20260503024821 | 5 | 342 | 0.0 | 0.0 | 0.00 | 0.20 | 0.15 | 68 | 1014.8 |
| 20260503024324 | 5 | 16 | 0.0 | 0.0 | 0.00 | 0.20 | 0.15 | 69 | 1014.9 |
| 20260503023827 | 5 | 231 | 0.0 | 0.0 | 0.00 | 0.20 | 0.15 | 69 | 1015.0 |
| 20260503023313 | 5 | 231 | 0.0 | 0.0 | 0.00 | 0.20 | 0.15 | 70 | 1014.9 |
| 20260503022840 | 5 | 231 | 0.0 | 0.0 | 0.00 | 0.20 | 0.15 | 71 | 1014.8 |
| 20260503022323 | 5 | 49 | 0.0 | 0.0 | 0.00 | 0.20 | 0.15 | 72 | 1014.8 |
| 20260503021829 | 5 | 49 | 0.0 | 0.0 | 0.00 | 0.20 | 0.15 | 72 | 1014.9 |
| 20260503021316 | 5 | 226 | 0.0 | 0.0 | 0.00 | 0.20 | 0.15 | 73 | 1015.0 |
| 20260503020820 | 5 | 320 | 0.0 | 0.0 | 0.00 | 0.20 | 0.15 | 73 | 1014.9 |
| 20260503020327 | 5 | 336 | 0.0 | 0.0 | 0.00 | 0.20 | 0.15 | 73 | 1014.8 |
| 20260503015829 | 5 | 217 | 0.0 | 0.0 | 0.00 | 0.20 | 0.15 | 73 | 1014.8 |
| 20260503015334 | 5 | 226 | 0.0 | 0.0 | 0.00 | 0.20 | 0.15 | 73 | 1014.7 |
| 20260503014819 | 5 | 226 | 0.0 | 0.0 | 0.00 | 0.20 | 0.15 | 74 | 1014.7 |
| 20260503014320 | 5 | 226 | 0.0 | 0.0 | 0.00 | 0.20 | 0.15 | 74 | 1014.7 |
| 20260503013823 | 5 | 226 | 0.0 | 0.0 | 0.00 | 0.20 | 0.15 | 74 | 1014.6 |
| 20260503013328 | 5 | 226 | 0.0 | 0.0 | 0.00 | 0.20 | 0.15 | 74 | 1014.6 |
| 20260503012834 | 5 | 226 | 0.0 | 0.0 | 0.00 | 0.20 | 0.15 | 74 | 1014.7 |
| 20260503012317 | 5 | 228 | 0.0 | 0.0 | 0.00 | 0.20 | 0.15 | 74 | 1014.6 |
| 20260503011821 | 5 | 224 | 0.0 | 0.0 | 0.00 | 0.20 | 0.15 | 74 | 1014.4 |
| 20260503011330 | 5 | 227 | 0.0 | 0.0 | 0.00 | 0.20 | 0.15 | 74 | 1014.5 |
| 20260503010814 | 5 | 208 | 0.0 | 0.0 | 0.00 | 0.20 | 0.15 | 73 | 1014.5 |
| 20260503010322 | 5 | 228 | 0.0 | 0.0 | 0.00 | 0.20 | 0.15 | 73 | 1014.4 |
| 20260503005827 | 5 | 276 | 0.0 | 0.0 | 0.00 | 0.25 | 0.15 | 73 | 1014.5 |
| 20260503005329 | 5 | 230 | 0.0 | 0.0 | 0.00 | 0.25 | 0.15 | 73 | 1014.4 |
| 20260503004813 | 5 | 233 | 0.0 | 0.0 | 0.00 | 0.25 | 0.15 | 73 | 1014.3 |
| 20260503004320 | 5 | 304 | 0.0 | 0.0 | 0.00 | 0.25 | 0.15 | 73 | 1014.3 |
| 20260503003846 | 5 | 275 | 0.0 | 0.0 | 0.00 | 0.25 | 0.15 | 72 | 1014.1 |
| 20260503003327 | 5 | 246 | 0.0 | 0.0 | 0.00 | 0.25 | 0.15 | 72 | 1014.2 |
| 20260503002831 | 5 | 248 | 0.0 | 0.0 | 0.00 | 0.25 | 0.15 | 73 | 1014.1 |
| 20260503002332 | 5 | 218 | 0.0 | 0.0 | 0.00 | 0.25 | 0.15 | 72 | 1014.1 |
| 20260503001832 | 5 | 262 | 0.0 | 0.0 | 0.00 | 0.25 | 0.15 | 72 | 1014.1 |
| 20260503001318 | 5 | 228 | 0.0 | 0.0 | 0.00 | 0.25 | 0.15 | 73 | 1014.0 |
| 20260503000826 | 5 | 235 | 0.0 | 0.0 | 0.00 | 0.25 | 0.15 | 73 | 1014.1 |
| 20260503000349 | 5 | 134 | 0.0 | 0.0 | 0.00 | 0.25 | 0.15 | 73 | 1014.1 |
| 20260502235814 | 5 | 244 | 0.0 | 0.0 | 0.00 | 0.28 | 0.15 | 72 | 1014.2 |
| 20260502235322 | 5 | 244 | 0.0 | 0.0 | 0.00 | 0.28 | 0.15 | 73 | 1014.1 |
| 20260502234847 | 5 | 244 | 0.0 | 0.0 | 0.00 | 0.28 | 0.15 | 72 | 1014.1 |
| 20260502234329 | 6 | 279 | 0.0 | 0.0 | 0.00 | 0.28 | 0.15 | 73 | 1014.1 |
| 20260502233834 | 6 | 267 | 0.0 | 0.0 | 0.00 | 0.28 | 0.15 | 73 | 1014.0 |
| 20260502233317 | 6 | 267 | 0.0 | 0.0 | 0.00 | 0.28 | 0.15 | 72 | 1014.0 |
| 20260502232843 | 6 | 267 | 0.0 | 0.0 | 0.00 | 0.28 | 0.15 | 72 | 1014.0 |
| 20260502232326 | 6 | 24 | 0.0 | 0.0 | 0.00 | 0.28 | 0.15 | 72 | 1014.0 |
| 20260502231830 | 6 | 25 | 0.0 | 0.0 | 0.00 | 0.28 | 0.15 | 72 | 1013.9 |
| 20260502231353 | 6 | 48 | 0.0 | 0.0 | 0.00 | 0.28 | 0.15 | 72 | 1013.8 |
| 20260502230818 | 6 | 6 | 0.0 | 0.0 | 0.00 | 0.28 | 0.15 | 71 | 1013.9 |
| 20260502230321 | 6 | 1 | 0.0 | 0.0 | 0.00 | 0.28 | 0.15 | 71 | 1013.9 |
| 20260502225831 | 6 | 358 | 0.0 | 0.0 | 0.00 | 0.28 | 0.15 | 71 | 1013.9 |
| 20260502225316 | 6 | 260 | 0.0 | 0.0 | 0.00 | 0.28 | 0.15 | 70 | 1013.9 |
| 20260502224844 | 6 | 242 | 0.0 | 0.0 | 0.00 | 0.28 | 0.15 | 69 | 1013.8 |
| 20260502224329 | 6 | 220 | 0.0 | 0.0 | 0.00 | 0.28 | 0.15 | 69 | 1013.7 |
| 20260502223813 | 7 | 281 | 0.0 | 0.0 | 0.00 | 0.28 | 0.15 | 68 | 1013.7 |
| 20260502223317 | 7 | 14 | 0.0 | 0.0 | 0.00 | 0.28 | 0.15 | 68 | 1013.8 |
| 20260502222820 | 7 | 22 | 0.0 | 0.0 | 0.00 | 0.28 | 0.15 | 67 | 1013.7 |
| 20260502222324 | 7 | 285 | 0.0 | 0.0 | 0.00 | 0.28 | 0.15 | 67 | 1013.7 |
| 20260502221826 | 7 | 302 | 0.0 | 0.0 | 0.00 | 0.28 | 0.15 | 69 | 1013.7 |
| 20260502221329 | 7 | 355 | 0.0 | 0.0 | 0.00 | 0.28 | 0.15 | 70 | 1013.6 |
| 20260502220834 | 7 | 342 | 0.0 | 0.0 | 0.00 | 0.28 | 0.15 | 70 | 1013.6 |
| 20260502220319 | 7 | 6 | 0.0 | 0.0 | 0.00 | 0.28 | 0.15 | 71 | 1013.4 |
| 20260502215827 | 7 | 285 | 0.0 | 0.0 | 0.00 | 0.30 | 0.15 | 70 | 1013.7 |
| 20260502215331 | 7 | 102 | 0.0 | 0.0 | 0.00 | 0.30 | 0.15 | 71 | 1013.6 |
| 20260502214816 | 7 | 287 | 0.0 | 0.0 | 0.00 | 0.30 | 0.15 | 70 | 1013.7 |
| 20260502214323 | 7 | 287 | 0.0 | 0.0 | 0.00 | 0.30 | 0.15 | 71 | 1013.7 |
| 20260502213848 | 6 | 345 | 0.0 | 0.0 | 0.00 | 0.30 | 0.15 | 70 | 1013.7 |